Location: Curupao
(10.4996°N, 66.6442°W)
Time: 23:52:03
(UTC+00:00)

Ariane H10 - Pass Details

Date: 23 May 2024
Orbit: 339 x 27086 km, 6.8° (Epoch: 11 June)

Event Time Altitude Azimuth Distance (km) Brightness Sun altitude
Exits shadow 08:30:56 15° 132° (SE) 1,054 3.5 -21.7°
Drops below altitude 10° 08:31:29 10° 121° (ESE) 1,262 4.0 -21.5°
Sets 08:33:31 0° 103° (ESE) 2,240 5.7 -21.1°
